Regional Weather Roundup
Issued by NWS

Home | Current Version | Previous Version | Graphics & Text | Print | Product List | Glossary On
Versions: 1 2 3 4 5 6 7 8 9 10 11 12 13 14 15 16 17 18 19 20 21 22 23 24 25 26 27 28 29 30 31 32 33 34 35 36 37 38 39 40 41 42 43 44 45 46 47 48 49 50
568
ASUS45 KTFX 080210
RWRMT
MONTANA REGIONAL WEATHER ROUNDUP
NATIONAL WEATHER SERVICE GREAT FALLS MT
700 PM MST WED DEC 07 2016

NOTE: "FAIR" INDICATES FEW OR NO CLOUDS BELOW 12000 FEET WITH NO
SIGNIFICANT WEATHER AND/OR OBSTRUCTIONS TO VISIBILITY.

MTZ001>007-043-080300-
WEST OF THE DIVIDE

CITY           SKY/WX    TMP DP  RH WIND       PRES   REMARKS
KALISPELL      CLEAR      2  -4  76 N3        30.48S
MISSOULA       CLOUDY    15   4  61 SE6       30.45S WCI   6
BUTTE          CLOUDY     5  -3  69 S10       30.27S WCI -10
MULLAN PASS    PTCLDY     2  -2  83 SE8       30.18R WCI -12
ANACONDA         N/A      7   0  72 CALM      30.32S
DEER LODGE       N/A      9   0  66 CALM      30.37R
EUREKA           N/A     -6  -9  84 CALM      30.54R
HAMILTON         N/A     14   5  67 N5        30.40R
LIBBY            N/A     14   3  62 CALM      30.49S
RONAN            N/A      9   2  73 CALM      30.44S
$$

MTZ008-052>055-080300-
SOUTHWEST MONTANA

CITY           SKY/WX    TMP DP  RH WIND       PRES   REMARKS
BOZEMAN        CLOUDY     7  -2  66 CALM      30.41R
DILLON         CLOUDY     4  -3  73 NE8       30.30R WCI  -9
W YELLOWSTONE  CLOUDY   -11 -17  77 CALM      30.22R
ENNIS          CLOUDY     1  -4  78 CALM      30.36S
THREE FORKS      N/A    N/A N/A N/A NW2       30.36S
$$

MTZ009-010-012-014-046-048-049-054-080300-
EAST SLOPES AND CENTRAL MONTANA

CITY           SKY/WX    TMP DP  RH WIND       PRES   REMARKS
CUT BANK       CLEAR    -11 -16  78 NW7       30.50R WCI -26
GREAT FALLS    CLOUDY     1  -5  75 CALM      30.51R
MALMSTROM AFB  CLOUDY     0  -5  78 N3        30.54R
HELENA         CLOUDY     6  -3  66 NW5       30.46R
AUGUSTA        FLURRIES  -1  -7  78 E3        30.43R
BOWMANS CRNR   FLURRIES  -3  -8  82 NE5       30.42R
CHOTEAU          N/A      0  -8  71 MISG      30.50S
POWER          MOCLDY    -3  -8  77 NW5       30.49R
RAYNESFORD     CLOUDY    -3  -9  76 NE1       30.48R
ULM            CLOUDY    -3  -7  82 S2        30.52R
$$

MTZ011-013-016-021-045-047-050-051-080300-
NORTH CENTRAL MONTANA

CITY           SKY/WX    TMP DP  RH WIND       PRES   REMARKS
HAVRE          CLEAR     -3  -9  75 NW7       30.63R WCI -16
LEWISTOWN      CLEAR    -10 -14  82 W7        30.46R WCI -25
N BAR RANCH    MOCLDY    -6 -15  65 NW5       30.43S
CHINOOK          N/A     -2  -9  71 W6        30.65R WCI -14
DENTON           N/A     -3  -9  77 W8G26     30.49R WCI -18
GEYSER           N/A     -4  -9  77 SW9       30.46R WCI -20
GRASS RANGE      N/A     -3  -8  79 SW14      30.45R WCI -22
JUDITH GAP       N/A    -12 -17  77 NW9       30.39R WCI -30
ROY              N/A     -4  -9  79 MISG      30.49R
WINIFRED         N/A     -3  -7  85 MISG      30.50R
$$

MTZ017>020-022>027-061-062-080300-
NORTHEAST MONTANA

CITY           SKY/WX    TMP DP  RH WIND       PRES   REMARKS
GLASGOW        CLEAR      0  -8  69 NW12      30.59R WCI -17
JORDAN           N/A     -1  -7  75 NW9       30.57R WCI -16
SIDNEY         CLOUDY     3  -4  72 NW23G30   30.55R WCI -19
WOLF POINT     CLOUDY     3  -7  63 W9        30.61R WCI -12
PLENTYWOOD       N/A     -2  -9  71 W15       30.51R WCI -22
POPLAR           N/A      1  -8  66 W12       30.60R WCI -15
$$

MTZ028>42-056>058-080300-
SOUTHCENTRAL AND SOUTHEAST MONTANA

CITY           SKY/WX    TMP DP  RH WIND       PRES   REMARKS
BAKER          CLOUDY     2  -5  72 NW20G29   30.48R WCI -19
BILLINGS       CLEAR      8  -2  63 SE5       30.48R
LIVINGSTON     CLOUDY     7  -3  64 W5        30.38R
MILES CITY     CLEAR      2  -7  66 NW9       30.57R WCI -13
BIG TIMBER     CLOUDY     3  -2  78 CALM      30.43R
FORSYTH          N/A      3  -6  66 W6        30.57R WCI  -8
HARLOWTON      MOCLDY    -1  -8  73 S2        30.42R
LAUREL           N/A      3 -10  54 SW2       30.40
ROUNDUP          N/A      0 -14  51 NE1       30.37S
$$

REGIONAL REPORTS...DAKOTAS

CITY           SKY/WX    TMP DP  RH WIND       PRES   REMARKS
WILLISTON      CLOUDY     2  -5  72 W13       30.55R WCI -15
MINOT          LGT SNOW   6   1  80 W31G40    30.38R WCI -18
DICKINSON      CLOUDY    -1  -7  75 W26G33    30.40R WCI -26
BEACH          CLOUDY     1  -4  78 NW18G26   30.52R WCI -19
CROSBY         LGT SNOW   5   0  78 NW26      30.50R WCI -18
TIOGA          CLOUDY     1   0  92 NW24G30   30.45R FOG     WCI -22
WATFORD CITY   CLOUDY     1  -4  78 NW17G25   30.51S WCI -19
BISMARCK       MIX PCPN   4  -1  80 NW23G33   30.43R WCI -18
GRAND FORKS    LGT SNOW  20  17  88 NW23G30   30.15R BLWGSNOWWCI   3
FARGO          LGT SNOW  17  12  80 NW21      30.16R WCI   0
BUFFALO SD       N/A      3  -5  69 NW24      30.37R WCI -20
RAPID CITY     CLEAR      0  -7  72 N9        30.44R WCI -15
$$

REGIONAL REPORTS...WYOMING/IDAHO/WASHINGTON

CITY           SKY/WX    TMP DP  RH WIND       PRES   REMARKS
GILLETTE       CLEAR     -6 -10  83 W12       30.41R WCI -25
SHERIDAN       CLEAR     -2 -10  69 E3        30.46R
BUFFALO WY     CLOUDY    -2 -11  65 W3        30.37R
CODY           CLOUDY    -6 -11  79 S6        30.37R WCI -19
YELLOWSTONE LA   N/A     -9 -12  87 NW3       30.15R
IDAHO FALLS    PTCLDY    13   6  74 E6        30.33R WCI   4
SALMON         PTCLDY     7   1  78 SE3       30.32R
BOISE          CLEAR     21  14  74 SE7       30.36F WCI  12
SPOKANE        PTCLDY    23  11  60 NE7       30.41S WCI  15
$$

REGIONAL REPORTS...ALBERTA

CITY           SKY/WX    TMP DP  RH WIND       PRES   REMARKS
EDMONTON       PTCLDY    -8 -17  65 N7        30.69R WCI -22
CALGARY        MOCLDY    -4 -13  65 N5        30.52S
LETHBRIDGE     CLEAR    -13 -18  77 SW8       30.59R WCI -30
MEDICINE HAT   CLEAR    -11 -17  77 SW5       30.65S
WATERTON GATE    N/A    -26 -33  68 CALM        N/A
CARDSTON         N/A    -15 -24  64 CALM        N/A
MILK RIVER       N/A    -15 -18  84 W7          N/A  WCI -31
ONEFOUR          N/A    -11 -15  84 NW10        N/A  WCI -30
$$

REGIONAL REPORTS...SASKATCHEWAN

CITY           SKY/WX    TMP DP  RH WIND       PRES   REMARKS
SWIFT CURRENT  CLEAR     -8 -11  84 W14       30.52R WCI -28
REGINA         FLURRIES   1  -4  78 NW18      30.52R WCI -19
SASKATOON      PTCLDY     0  -6  78 NW12      30.61R WCI -18
VAL MARIE        N/A     -8 -13  77 W3          N/A
$$




USA.gov is the U.S. government's official web portal to all federal, state and local government web resources and services.